NOAA 20 1 43013U 17073A 21018.82668023 .00000003 00000-0 22420-4 0 9993 2 43013 98.7408 319.6372 0001367 86.9189 273.2144 14.19548091164217 BUCCANEER RMM 1 43014U 17073B 21018.73255339 .00001509 00000-0 12281-3 0 9991 2 43014 97.7098 287.4025 0248274 69.6615 293.1085 14.79951143170978 MIRATA 1 43015U 17073C 21018.68805498 .00001211 00000-0 97031-4 0 9990 2 43015 97.7136 288.6839 0252745 66.2503 296.4999 14.80211756171056 MAKERSAT 0 1 43016U 17073D 21018.72209926 .00000790 00000-0 65275-4 0 9996 2 43016 97.7172 288.8361 0256031 67.7994 295.0167 14.79618314171029 RADFXSAT (FOX-1B) 1 43017U 17073E 21018.72386967 .00000618 00000-0 52497-4 0 9999 2 43017 97.7171 288.5818 0257255 68.8534 293.9963 14.79259468170980 EAGLESAT 1 1 43018U 17073F 21018.72123024 .00001071 00000-0 85925-4 0 9999 2 43018 97.7172 289.2425 0254432 66.2395 296.5278 14.80135585170898